Starlink 31487

operational
NORAD ID: 59297 Int'l Des: 2024-056 Owner: SPXS Country: US Constellation: starlink
LEOCIRCULAR

关于 Starlink 31487

正在加载描述...

实时位置

正在加载3D地球...

即将过境

高度历史

Altitude vs Time

uPlot chart will show altitude changes over time

两行轨道根数

1 59297U 24056B 25352.29526597 .00000840 00000-0 40041-4 0 9996
2 59297 43.0003 330.5973 0001481 267.4345 92.6337 15.27581712 98825
Epoch: Dec 18, 2025 • Age: 22 hours

当前状态

高度 494.3 km
速度 7.62 km/s
星下点 -40.48°S, 100.79°E
发射日期 Mar 24, 2024
运行时间 1.7 years
类型 internet

技术详情

分类 Payload
质量 730.00 kg
干质量 700.00 kg
总质量 730.00 kg
长度 0.30 m
直径 4.10 m
跨度 29.00 m
形状 Box + pan
制造商 SPXS
平台类型 Starlink V2M
阶段状态 In Orbit
所有者/国家 SPXS/US

大型星座

Loading constellations...